[[{"header":{"parameterUnit":"m.s-1","parameterCategory":1,"la1":30.2991,"la2":30.254,"lo1":-89.0895,"lo2":-89.0444,"dy":0.0017,"dx":0.0017,"nx":28,"ny":28,"refTime":"2023-09-30T03:00:00:Z","depth":0,"parameterNumber":2,"parameterNumberName":"U-component_of_WINDS"},"data":[0,0,0,0,0,0,0,0,0,0,0,0,0,0,0,0,0,0,0,0,0,0,0,0,0,0,0,0,0,0,0,0,0,0,0,0,0,0,0,0,0,0,0,0,0,0,0,0,0,0,0,0,0,0,0,0,0,0,-5.9399,-5.94,0,-5.9449,-5.945,-5.945,-5.9361,-5.9358,-5.9355,-5.9353,-5.9405,-5.9409,-5.9413,0,0,0,0,0,0,0,0,0,0,0,0,0,-5.9229,-5.9233,-5.9399,-5.94,-5.94,-5.9449,-5.945,-5.945,-5.9362,-5.9358,-5.9355,-5.9351,-5.9403,-5.9408,-5.9413,0,0,0,0,0,0,0,0,0,0,0,0,0,-5.9294,-5.9234,-5.9399,-5.9362,-5.9359,-5.9449,-5.945,-5.9451,-5.9363,-5.9358,-5.9354,-5.935,-5.9402,-5.9408,-5.9414,-5.9542,0,0,-5.9433,-5.9436,0,0,0,0,0,0,0,0,-5.929,-5.93,-5.9367,-5.9365,-5.9362,-5.9394,-5.9409,-5.9481,-5.9364,-5.9361,-5.9353,-5.9347,-5.9405,-5.9411,-5.943,-5.9545,-5.9547,-5.9434,-5.9437,-5.944,-5.9442,0,0,0,0,0,0,0,-5.9286,-5.9297,-5.9419,-5.9368,-5.9365,-5.9344,-5.9348,-5.9422,-5.9408,-5.9361,-5.9355,-5.9362,-5.9403,-5.9424,-5.943,-5.9548,-5.9433,-5.9439,-5.9443,-5.9445,-5.9774,-5.9779,0,0,0,0,0,0,-5.9286,-5.9294,-5.9417,-5.942,-5.9314,-5.935,-5.9355,-5.9389,-5.9407,-5.9405,-5.9366,-5.9358,-5.9416,-5.9423,-5.9432,-5.9586,-5.944,-5.9446,-5.945,-5.9769,-5.9775,-5.978,0,0,0,0,0,0,-5.9282,-5.9297,-5.9415,-5.9356,-5.9369,-5.9358,-5.9396,-5.9392,-5.9413,-5.941,-5.9407,-5.939,-5.9412,-5.9423,-5.9516,-5.9586,-5.9449,-5.9454,-5.9763,-5.9771,-5.9778,-5.9893,0,0,0,0,0,0,-5.9278,-5.9297,-5.9345,-5.9357,-5.9373,-5.9498,-5.9401,-5.9396,-5.9424,-5.9414,-5.9432,-5.9431,-5.941,-5.9507,-5.9523,-5.9592,-5.9459,-5.9757,-5.9766,-5.9775,-5.9883,-5.9903,-5.9921,0,0,0,0,0,-5.9272,-5.9375,-5.9347,-5.9363,-5.9432,-5.9502,-5.9511,-5.9484,-5.943,-5.9479,-5.9477,-5.943,-5.9576,-5.9518,-5.9534,-5.9607,-5.9752,-5.9764,-5.9775,-5.9874,-5.9899,-5.9921,0,0,0,0,0,0,-5.937,-5.9375,-5.9345,-5.9455,-5.9479,-5.9487,-5.9548,-5.9511,-5.9551,-5.954,-5.9505,-5.951,-5.9611,-5.9618,-5.9553,-5.9734,-5.9655,-5.967,-5.9725,-5.9749,-5.9768,-5.9765,-5.9465,0,0,0,0,0,-5.9404,-5.946,-5.9462,-5.9559,-5.9573,-5.9559,-5.9588,-5.9566,-5.9589,-5.9599,-5.9604,-5.9629,-5.968,-5.9715,-5.9762,-5.9883,-5.9887,-5.9942,-5.9961,-5.9976,-5.999,-6.0058,-6.0083,-5.9817,-5.9817,-5.9817,0,0,-5.9476,-5.9486,-5.9523,-5.9579,-5.9595,-5.9655,-5.9567,-5.9634,-5.9679,-5.9609,-5.9697,-5.9703,-5.9728,-5.9837,-5.9885,-5.9846,-6.0065,-5.9991,-6.0003,-6.0008,-6.0072,-6.0097,-6.012,-5.9825,-5.9823,-5.9822,0,0,-5.9637,-5.9649,-5.9733,-5.9751,-5.9776,-5.9767,-5.9787,-5.9801,-5.9802,-5.9891,-5.9841,-5.9894,-5.9982,-6.0004,-6.0026,-6.0199,-6.0159,-6.0215,-6.0315,-6.0382,-6.0403,-6.0421,-6.0485,-6.0508,-6.0229,-6.0229,-6.0229,0,-5.9723,-5.981,-5.978,-5.9851,-5.9878,-5.9818,-5.9903,-5.9922,-5.9962,-5.9983,-5.9938,-6.0051,-6.0063,-6.0178,-6.022,-6.024,-6.0263,-6.0213,-6.0402,-6.042,-6.0437,-6.0498,-6.0522,-6.0236,-6.0235,-6.0235,-6.0234,0,-5.9916,-5.9978,-6.0042,-6.0083,-6.0117,-6.0195,-6.0177,-6.0216,-6.0191,-6.0187,-6.028,-6.0293,-6.0344,-6.0369,-6.0345,-6.0481,-6.0456,-6.0408,-6.0328,-6.047,-6.0526,-6.0549,-6.0246,-6.0243,-6.0241,-6.024,0,0,-6.0139,-6.0164,-6.0188,-6.0207,-6.0232,-6.028,-6.0356,-6.0405,-6.044,-6.047,-6.0535,-6.0613,-6.0569,-6.0595,-6.0573,-6.0631,-6.077,-6.0575,-6.0576,-6.0613,-6.0924,-6.0962,-6.0989,-6.0743,-6.0748,-6.0751,-6.0923,0,-6.0301,-6.0432,-6.0408,-6.0536,-6.0594,-6.0539,-6.0606,-6.063,-6.0628,-6.0678,-6.0677,-6.0734,-6.067,-6.0686,-6.0741,-6.0742,-6.0833,-6.0729,-6.0805,-6.0808,-6.0801,-6.1018,-6.1057,-6.1219,-6.0944,-6.0948,-6.0951,0,-6.0507,-6.0546,-6.068,-6.0699,-6.0722,-6.0782,-6.0827,-6.0875,-6.0902,-6.0897,-6.0928,-6.0896,-6.0973,-6.0893,-6.1,-6.093,-6.096,-6.0966,-6.0971,-6.0978,-6.0889,-6.1033,-6.1269,-6.1294,-6.0985,-6.0982,-6.098,0,-6.0659,-6.0745,-6.0837,-6.0855,-6.0878,-6.0922,-6.0934,-6.0956,-6.0988,-6.1028,-6.1049,-6.1097,-6.1124,-6.1162,-6.1145,-6.1088,-6.1257,-6.1175,-6.1257,-6.1258,-6.1296,-6.1294,-6.1542,-6.1313,-6.1312,-6.1312,-6.1312,0,-6.0843,-6.0928,-6.0906,-6.0963,-6.1057,-6.1029,-6.1124,-6.1129,-6.115,-6.1208,-6.1163,-6.1219,-6.1192,-6.1246,-6.1233,-6.1326,-6.1338,-6.1338,-6.1334,-6.1343,-6.1343,-6.1362,-6.1351,-6.1318,-6.1317,-6.1316,-6.1315,0,-6.1029,-6.1017,-6.1114,-6.1129,-6.1135,-6.1204,-6.1217,-6.1271,-6.1267,-6.1342,-6.1358,-6.1352,-6.1414,-6.14,-6.1468,-6.1459,-6.1577,-6.1558,-6.1568,-6.1564,-6.1648,-6.1642,-6.1919,-6.1955,-6.1701,-6.1703,-6.1705,0,-6.1147,-6.1212,-6.1234,-6.127,-6.1286,-6.1343,-6.1377,-6.1353,-6.1389,-6.1426,-6.1477,-6.1534,-6.158,-6.1682,-6.1684,-6.1737,-6.172,-6.1813,-6.1727,-6.1735,-6.1724,-6.1721,-6.1728,-6.1831,-6.1834,-6.1836,-6.1838,0,-6.136,-6.1352,-6.1401,-6.145,-6.1491,-6.1528,-6.1561,-6.1593,-6.1572,-6.1616,-6.1679,-6.1715,-6.1785,-6.1844,-6.1893,-6.1906,-6.187,-6.1865,-6.1887,-6.1898,-6.1902,-6.1903,-6.1617,-6.1859,-6.1857,-6.1855,-6.1854,-6.1853,-6.1517,-6.1573,-6.1598,-6.1656,-6.1678,-6.1711,-6.1763,-6.1766,-6.1818,-6.1874,-6.1857,-6.193,-6.1957,-6.2019,-6.2039,-6.2096,-6.2061,-6.2093,-6.2101,-6.211,-6.2121,-6.1892,-6.2105,-6.2104,-6.2104,-6.2103,-6.2103,0,-6.173,-6.1744,-6.1797,-6.1845,-6.1891,-6.1852,-6.1888,-6.1929,-6.1993,-6.2022,-6.2068,-6.2142,-6.22,-6.2208,-6.2264,-6.2308,-6.2293,-6.2324,-6.2321,-6.2325,-6.2148,-6.2124,-6.2335,-6.2335,-6.2335,-6.2335,-6.2335,-6.2335,-6.1845,-6.1938,-6.1934,-6.2039,-6.2052,-6.2123,-6.2147,-6.2177,-6.22,-6.2285,-6.2333,-6.2338,-6.236,-6.2417,-6.2469,-6.247,-6.2493,-6.2531,-6.2526,-6.2361,-6.2337,-6.2315,-6.2293,-6.2536,-6.2536,-6.2698,-6.27,-6.2701]},{"header":{"parameterUnit":"m.s-1","parameterCategory":1,"la1":30.2991,"la2":30.254,"lo1":-89.0895,"lo2":-89.0444,"dy":0.0017,"dx":0.0017,"nx":28,"ny":28,"refTime":"2023-09-30T03:00:00:Z","depth":0,"parameterNumber":3,"parameterNumberName":"V-component_of_WINDS"},"data":[0,0,0,0,0,0,0,0,0,0,0,0,0,0,0,0,0,0,0,0,0,0,0,0,0,0,0,0,0,0,0,0,0,0,0,0,0,0,0,0,0,0,0,0,0,0,0,0,0,0,0,0,0,0,0,0,0,0,-0.8409,-0.8409,0,-0.8438,-0.8438,-0.8439,-0.8399,-0.8398,-0.8396,-0.8395,-0.843,-0.8432,-0.8434,0,0,0,0,0,0,0,0,0,0,0,0,0,-0.8323,-0.8325,-0.8409,-0.8409,-0.841,-0.8438,-0.8438,-0.8439,-0.84,-0.8398,-0.8396,-0.8394,-0.8429,-0.8431,-0.8434,0,0,0,0,0,0,0,0,0,0,0,0,0,-0.8357,-0.8325,-0.8409,-0.8393,-0.8392,-0.8438,-0.8438,-0.8439,-0.84,-0.8398,-0.8396,-0.8394,-0.8428,-0.8431,-0.8435,-0.8498,0,0,-0.8445,-0.8446,0,0,0,0,0,0,0,0,-0.8355,-0.836,-0.8395,-0.8394,-0.8393,-0.8413,-0.8421,-0.8459,-0.84,-0.8397,-0.8395,-0.8393,-0.8426,-0.8429,-0.844,-0.85,-0.8501,-0.8445,-0.8447,-0.8449,-0.845,0,0,0,0,0,0,0,-0.8353,-0.8359,-0.8421,-0.8396,-0.8395,-0.8386,-0.8389,-0.8428,-0.8423,-0.8397,-0.8394,-0.8398,-0.8425,-0.8437,-0.844,-0.8502,-0.8445,-0.8448,-0.845,-0.8451,-0.8617,-0.8619,0,0,0,0,0,0,-0.8352,-0.8357,-0.842,-0.8421,-0.8368,-0.8389,-0.8392,-0.8409,-0.8423,-0.8423,-0.84,-0.8396,-0.8432,-0.8436,-0.8441,-0.8518,-0.8449,-0.8452,-0.8454,-0.8615,-0.8618,-0.862,0,0,0,0,0,0,-0.835,-0.8358,-0.8418,-0.8389,-0.8396,-0.8393,-0.8412,-0.8411,-0.8422,-0.8425,-0.8424,-0.8412,-0.843,-0.8437,-0.8484,-0.8519,-0.8453,-0.8456,-0.8612,-0.8616,-0.8619,-0.8672,0,0,0,0,0,0,-0.8348,-0.8357,-0.8381,-0.8389,-0.8397,-0.846,-0.8414,-0.8413,-0.8427,-0.8423,-0.8436,-0.8437,-0.8429,-0.848,-0.8488,-0.8523,-0.8459,-0.8609,-0.8614,-0.8618,-0.8668,-0.8677,-0.8686,0,0,0,0,0,-0.8345,-0.8395,-0.8382,-0.839,-0.8426,-0.8462,-0.8467,-0.8456,-0.843,-0.8455,-0.8456,-0.8436,-0.8513,-0.8485,-0.8494,-0.853,-0.8607,-0.8612,-0.8618,-0.8664,-0.8675,-0.8685,0,0,0,0,0,0,-0.8393,-0.8396,-0.8382,-0.8436,-0.8449,-0.8455,-0.8486,-0.8469,-0.8491,-0.8486,-0.8472,-0.8476,-0.8527,-0.8533,-0.8501,-0.8593,-0.8556,-0.8563,-0.8588,-0.8599,-0.8608,-0.8607,-0.8462,0,0,0,0,0,-0.8409,-0.8437,-0.8439,-0.8487,-0.8493,-0.8488,-0.8504,-0.8494,-0.8508,-0.8513,-0.8519,-0.8534,-0.8561,-0.858,-0.8606,-0.8667,-0.8671,-0.8696,-0.8705,-0.8713,-0.8721,-0.8755,-0.8767,-0.8638,-0.8638,-0.8638,0,0,-0.8444,-0.845,-0.8468,-0.8496,-0.8505,-0.8536,-0.8494,-0.8527,-0.855,-0.8519,-0.8565,-0.8569,-0.8585,-0.864,-0.8665,-0.8647,-0.8756,-0.872,-0.8726,-0.8729,-0.8762,-0.8774,-0.8785,-0.8642,-0.8641,-0.864,0,0,-0.8525,-0.853,-0.8571,-0.8581,-0.8594,-0.859,-0.86,-0.8609,-0.861,-0.8655,-0.8633,-0.866,-0.8708,-0.872,-0.8733,-0.8817,-0.88,-0.8826,-0.8874,-0.8908,-0.8919,-0.8928,-0.896,-0.8971,-0.8832,-0.8833,-0.8833,0,-0.8567,-0.8611,-0.8595,-0.8631,-0.8645,-0.8615,-0.8658,-0.8668,-0.869,-0.8701,-0.8679,-0.8738,-0.8747,-0.8806,-0.8826,-0.8836,-0.8849,-0.8826,-0.8918,-0.8927,-0.8935,-0.8966,-0.8978,-0.8836,-0.8835,-0.8835,-0.8835,0,-0.8664,-0.8694,-0.8726,-0.8747,-0.8764,-0.8803,-0.8794,-0.8813,-0.8802,-0.8801,-0.8848,-0.8856,-0.8884,-0.8896,-0.8886,-0.8954,-0.8943,-0.892,-0.8883,-0.8951,-0.898,-0.8991,-0.884,-0.8839,-0.8838,-0.8837,0,0,-0.8778,-0.8787,-0.88,-0.8809,-0.8821,-0.8845,-0.8883,-0.8908,-0.8926,-0.8941,-0.8975,-0.9015,-0.8993,-0.9008,-0.8998,-0.9028,-0.9097,-0.9001,-0.9002,-0.9021,-0.9175,-0.9194,-0.9208,-0.9084,-0.9086,-0.9088,-0.9174,0,-0.886,-0.8924,-0.8911,-0.8975,-0.9004,-0.8976,-0.9009,-0.9021,-0.902,-0.9046,-0.9045,-0.9075,-0.9044,-0.9052,-0.908,-0.9082,-0.9128,-0.9075,-0.9117,-0.9119,-0.9117,-0.9223,-0.9243,-0.9325,-0.9185,-0.9187,-0.9188,0,-0.8964,-0.8983,-0.9049,-0.9057,-0.9069,-0.9099,-0.9121,-0.9145,-0.9158,-0.9156,-0.9172,-0.9156,-0.9196,-0.9156,-0.9211,-0.9175,-0.9191,-0.9195,-0.9198,-0.9204,-0.916,-0.9234,-0.935,-0.9364,-0.9206,-0.9204,-0.9203,0,-0.9044,-0.9085,-0.913,-0.9139,-0.9148,-0.917,-0.9176,-0.9186,-0.9203,-0.9222,-0.9233,-0.9257,-0.9272,-0.9291,-0.9284,-0.9255,-0.9341,-0.93,-0.9343,-0.9343,-0.9365,-0.9364,-0.9488,-0.937,-0.937,-0.937,-0.937,0,-0.9139,-0.9182,-0.9166,-0.9195,-0.9242,-0.9226,-0.9274,-0.9276,-0.9285,-0.9315,-0.9291,-0.932,-0.9306,-0.9334,-0.9328,-0.9376,-0.9382,-0.9383,-0.9381,-0.9387,-0.9387,-0.9399,-0.9395,-0.9373,-0.9372,-0.9372,-0.9371,0,-0.9237,-0.9228,-0.9277,-0.9281,-0.9283,-0.9318,-0.9322,-0.935,-0.9346,-0.9384,-0.9392,-0.9388,-0.9419,-0.9413,-0.9447,-0.9443,-0.9504,-0.9494,-0.95,-0.9499,-0.9543,-0.954,-0.9681,-0.97,-0.9567,-0.9569,-0.957,0,-0.93,-0.9332,-0.9339,-0.9356,-0.9363,-0.9391,-0.9407,-0.9392,-0.9411,-0.9427,-0.9453,-0.9482,-0.9505,-0.9557,-0.9558,-0.9585,-0.9577,-0.9625,-0.9582,-0.9586,-0.9582,-0.9581,-0.9585,-0.9635,-0.9636,-0.9638,-0.9638,0,-0.9413,-0.9407,-0.943,-0.9452,-0.9472,-0.9489,-0.9503,-0.9519,-0.9506,-0.9527,-0.9558,-0.9576,-0.9611,-0.9641,-0.9666,-0.9672,-0.9655,-0.9651,-0.9663,-0.9671,-0.9674,-0.9675,-0.9527,-0.9649,-0.9648,-0.9647,-0.9647,-0.9646,-0.9497,-0.9525,-0.9534,-0.9561,-0.957,-0.9585,-0.9611,-0.961,-0.9635,-0.9662,-0.9652,-0.9688,-0.9701,-0.9732,-0.9741,-0.9771,-0.9753,-0.977,-0.9774,-0.9779,-0.9786,-0.9666,-0.9775,-0.9774,-0.9774,-0.9774,-0.9774,0,-0.9611,-0.9616,-0.964,-0.9661,-0.9683,-0.9661,-0.9676,-0.9696,-0.9728,-0.974,-0.9763,-0.9799,-0.9828,-0.9831,-0.9858,-0.9881,-0.9874,-0.9889,-0.9889,-0.9892,-0.9799,-0.9787,-0.9895,-0.9895,-0.9895,-0.9895,-0.9895,-0.9895,-0.9674,-0.972,-0.9714,-0.9765,-0.9769,-0.9804,-0.9815,-0.9828,-0.9838,-0.9879,-0.9903,-0.9903,-0.9912,-0.994,-0.9966,-0.9966,-0.9979,-0.9998,-0.9996,-0.991,-0.9898,-0.9886,-0.9876,-1.0,-1.0001,-1.0086,-1.0087,-1.0088]}]]